sat.trackr.live / text

‹ back to catalog

STARLINK-35495

NORAD 66243 · 2025-245K

PAYLOAD ACTIVE UNKNOWN

§ Identity

Operator
Country
US
Launch date
2025-10-29
Launch site
AFETR
Launch vehicle
Mass (kg)
RCS (m²)

Purposes: comms

External: N2YO · Heavens-Above · Gunter

§ Orbital elements

Epoch: 2026-09-20T22:02:55.324032Z

Period
93.85 min
Inclination
53.1582°
Eccentricity
0.0001836
Mean motion
15.34405130 rev/d
Perigee alt
461.4 km
Apogee alt
463.9 km
Semi-major
6,840.8 km
B*
7.3751e-4
RAAN
95.8960°
Arg perigee
88.2981°
Mean anomaly
271.8232°
Rev number
5,115

§ Raw data

STARLINK-354951 66243U 25245K   26263.91869588  .00024628  00000+0  73751-3 0  99992 66243  53.1582  95.8960 0001836  88.2981 271.8232 15.34405130 51151

JSON: /api/v1/satellites/66243 · /tle

For live sub-satellite position, see the globe view (requires WebGL).

§ Visibility from observer

Set your observer location to see the next 7 days of passes ≥ 10°. The values pass through the URL so the page stays shareable.

No JS? Fill the form by hand. The geolocation button needs JavaScript.